Cheraw, SC

10:00 PM EST on February 13, 2016 (GMT -0500)
Cheraw

Weather History for KCQW - November, 2011

Change the Weather History Date:

Saturday, November 5, 2011

  Actual Average (KFLO) Record (KFLO)
Temperature  
Mean Temperature 48 °F 58 °F  
Max Temperature 57 °F 70 °F 86 °F (1974)
Min Temperature 39 °F 47 °F 28 °F (1966)
Degree Days  
Heating Degree Days 17 7  
Month to date heating degree days 35  
Since 1 July heating degree days 152  
Cooling Degree Days 0 1  
Month to date cooling degree days 5  
Year to date cooling degree days 2047  
Moisture  
Dew Point 34 °F    
Average Humidity 60    
Maximum Humidity 81    
Minimum Humidity 41    
Precipitation  
Precipitation 0.00 in 0.09 in 0.66 in (1963)
Month to date precipitation 0.44  
Year to date precipitation 37.67  
Sea Level Pressure  
Sea Level Pressure 30.28 in    
Wind  
Wind Speed 11 mph (NNE)    
Max Wind Speed 17 mph    
Max Gust Speed 24 mph    
Visibility 10 miles    
Events      
T = Trace of Precipitation, MM = Missing Value Source: NWS Daily Summary

Daily Weather History Graph

Daily Weather History Graph

Search for Another Location

Airport or City:

Trip Planner

Search our weather history database for the weather conditions in past years. The results will help you decide how hot, cold, wet, or windy it might be!

Date:

Astronomy

Nov. 05, 2011 Rise Set
Actual Time 7:43 AM EDT 6:22 PM EDT
Civil Twilight 7:17 AM EDT 6:48 PM EDT
Nautical Twilight 6:47 AM EDT 7:18 PM EDT
Astronomical Twilight 6:18 AM EDT 7:48 PM EDT
Moon 3:30 PM EDT (11/5) 3:02 AM EDT (11/5)
Length of Visible Light 11h 31m
Length of Day
10h 38m
Waxing Gibbous, 78% of the Moon is Illuminated
Nov 5
Waxing Gibbous
Nov 10
Full
Nov 18
Last Quarter
Nov 25
New
Dec 2
First Quarter

Hourly Weather History & Observations

Time (EDT) Temp. Windchill Dew Point Humidity Pressure Visibility Wind Dir Wind Speed Gust Speed Precip Events Conditions
12:15 AM 50.0 °F - 39.2 °F 66% 30.09 in 10.0 mi North 13.8 mph 24.2 mph N/A   Clear
12:35 AM 50.0 °F - 39.2 °F 66% 30.09 in 10.0 mi NNE 13.8 mph 21.9 mph N/A   Clear
12:55 AM 48.2 °F - 37.4 °F 66% 30.10 in 10.0 mi NNE 11.5 mph 16.1 mph N/A   Clear
1:15 AM 48.2 °F - 33.8 °F 58% 30.10 in 10.0 mi NNE 13.8 mph 20.7 mph N/A   Clear
1:35 AM 48.2 °F - 33.8 °F 58% 30.11 in 10.0 mi NNE 12.7 mph 18.4 mph N/A   Clear
1:55 AM 46.4 °F 40.4 °F 32.0 °F 57% 30.12 in 10.0 mi NNE 13.8 mph 18.4 mph N/A   Clear
2:15 AM 46.4 °F 41.1 °F 32.0 °F 57% 30.12 in 10.0 mi NNE 11.5 mph 19.6 mph N/A   Clear
2:35 AM 46.4 °F 40.7 °F 32.0 °F 57% 30.12 in 10.0 mi North 12.7 mph 18.4 mph N/A   Clear
3:35 AM 44.6 °F 37.4 °F 32.0 °F 61% 30.15 in 10.0 mi NNE 16.1 mph 19.6 mph N/A   Clear
3:55 AM 44.6 °F 39.7 °F 32.0 °F 61% 30.15 in 10.0 mi NNE 9.2 mph - N/A   Clear
4:15 AM 44.6 °F 39.2 °F 32.0 °F 61% 30.15 in 10.0 mi NNE 10.4 mph 17.3 mph N/A   Clear
4:35 AM 42.8 °F 37.0 °F 32.0 °F 66% 30.16 in 10.0 mi NNE 10.4 mph - N/A   Clear
4:55 AM 42.8 °F 36.6 °F 30.2 °F 61% 30.17 in 10.0 mi NNE 11.5 mph 16.1 mph N/A   Clear
5:35 AM 42.8 °F 38.0 °F 30.2 °F 61% 30.18 in 10.0 mi NNE 8.1 mph - N/A   Clear
5:55 AM 41.0 °F 34.3 °F 30.2 °F 65% 30.19 in 10.0 mi NNE 11.5 mph - N/A   Clear
6:15 AM 41.0 °F 35.8 °F 30.2 °F 65% 30.20 in 10.0 mi North 8.1 mph - N/A   Clear
6:35 AM 41.0 °F 35.8 °F 30.2 °F 65% 30.21 in 10.0 mi North 8.1 mph - N/A   Clear
6:55 AM 39.2 °F 33.6 °F 30.2 °F 70% 30.22 in 10.0 mi North 8.1 mph - N/A   Clear
7:15 AM 39.2 °F 32.5 °F 30.2 °F 70% 30.23 in 10.0 mi North 10.4 mph - N/A   Clear
7:35 AM 39.2 °F 33.6 °F 28.4 °F 65% 30.24 in 10.0 mi North 8.1 mph - N/A   Clear
8:15 AM 39.2 °F 32.5 °F 30.2 °F 70% 30.26 in 10.0 mi North 10.4 mph - N/A   Clear
8:35 AM 39.2 °F 32.0 °F 30.2 °F 70% 30.27 in 10.0 mi North 11.5 mph 16.1 mph N/A   Clear
8:55 AM 41.0 °F 33.9 °F 30.2 °F 65% 30.28 in 10.0 mi North 12.7 mph 18.4 mph N/A   Clear
9:35 AM 44.6 °F 37.2 °F 30.2 °F 57% 30.30 in 10.0 mi North 17.3 mph 23.0 mph N/A   Clear
9:55 AM 44.6 °F 38.1 °F 30.2 °F 57% 30.30 in 10.0 mi North 13.8 mph 18.4 mph N/A   Clear
10:15 AM 46.4 °F 41.1 °F 32.0 °F 57% 30.32 in 10.0 mi North 11.5 mph - N/A   Clear
10:55 AM 48.2 °F - 32.0 °F 54% 30.33 in 10.0 mi NNE 12.7 mph 21.9 mph N/A   Clear
11:35 AM 51.8 °F - 33.8 °F 50% 30.35 in 10.0 mi NNE 13.8 mph 21.9 mph N/A   Clear
11:55 AM 51.8 °F - 33.8 °F 50% 30.35 in 10.0 mi North 11.5 mph 19.6 mph N/A   Partly Cloudy
12:15 PM 51.8 °F - 33.8 °F 50% 30.35 in 10.0 mi NNE 12.7 mph 20.7 mph N/A   Mostly Cloudy
12:35 PM 53.6 °F - 33.8 °F 47% 30.35 in 10.0 mi NNE 16.1 mph 21.9 mph N/A   Scattered Clouds
12:55 PM 53.6 °F - 33.8 °F 47% 30.34 in 10.0 mi NNE 12.7 mph 19.6 mph N/A   Partly Cloudy
1:15 PM 53.6 °F - 33.8 °F 47% 30.34 in 10.0 mi NNE 15.0 mph 18.4 mph N/A   Clear
1:35 PM 55.4 °F - 33.8 °F 44% 30.33 in 10.0 mi NE 12.7 mph 20.7 mph N/A   Clear
1:55 PM 55.4 °F - 33.8 °F 44% 30.33 in 10.0 mi NE 12.7 mph 20.7 mph N/A   Clear
2:15 PM 57.2 °F - 33.8 °F 41% 30.32 in 10.0 mi NNE 15.0 mph 18.4 mph N/A   Clear
2:35 PM 55.4 °F - 33.8 °F 44% 30.32 in 10.0 mi NE 12.7 mph 21.9 mph N/A   Clear
3:35 PM 57.2 °F - 33.8 °F 41% 30.32 in 10.0 mi NE 12.7 mph - N/A   Clear
3:55 PM 57.2 °F - 33.8 °F 41% 30.33 in 10.0 mi NE 12.7 mph 16.1 mph N/A   Clear
4:15 PM 57.2 °F - 33.8 °F 41% 30.33 in 10.0 mi ENE 10.4 mph 19.6 mph N/A   Clear
4:35 PM 57.2 °F - 33.8 °F 41% 30.33 in 10.0 mi ENE 11.5 mph 17.3 mph N/A   Clear
4:55 PM 55.4 °F - 33.8 °F 44% 30.33 in 10.0 mi ENE 10.4 mph 16.1 mph N/A   Clear
5:15 PM 55.4 °F - 35.6 °F 47% 30.34 in 10.0 mi ENE 11.5 mph - N/A   Clear
5:35 PM 55.4 °F - 35.6 °F 47% 30.34 in 10.0 mi ENE 8.1 mph - N/A   Clear
5:55 PM 53.6 °F - 35.6 °F 51% 30.35 in 10.0 mi ENE 10.4 mph - N/A   Clear
6:15 PM 51.8 °F - 35.6 °F 54% 30.35 in 10.0 mi ENE 5.8 mph - N/A   Clear
6:35 PM 50.0 °F - 37.4 °F 62% 30.36 in 10.0 mi ENE 5.8 mph - N/A   Clear
6:55 PM 48.2 °F - 37.4 °F 66% 30.36 in 10.0 mi ENE 5.8 mph - N/A   Clear
7:35 PM 46.4 °F 45.2 °F 37.4 °F 71% 30.36 in 10.0 mi NNE 3.5 mph - N/A   Clear
7:55 PM 44.6 °F 43.1 °F 39.2 °F 81% 30.37 in 10.0 mi NNE 3.5 mph - N/A   Clear
8:15 PM 44.6 °F 43.1 °F 37.4 °F 76% 30.37 in 10.0 mi NNE 3.5 mph - N/A   Clear
8:35 PM 42.8 °F 41.1 °F 37.4 °F 81% 30.38 in 10.0 mi North 3.5 mph - N/A   Clear
8:55 PM 42.8 °F 39.3 °F 37.4 °F 81% 30.38 in 10.0 mi North 5.8 mph - N/A   Clear
9:15 PM 42.8 °F 38.6 °F 37.4 °F 81% 30.38 in 10.0 mi North 6.9 mph - N/A   Clear
9:35 PM 42.8 °F 39.3 °F 37.4 °F 81% 30.38 in 10.0 mi North 5.8 mph - N/A   Clear
9:55 PM 42.8 °F 39.3 °F 37.4 °F 81% 30.39 in 10.0 mi North 5.8 mph - N/A   Clear
10:15 PM 42.8 °F 38.6 °F 37.4 °F 81% 30.39 in 10.0 mi NNE 6.9 mph - N/A   Clear
10:35 PM 42.8 °F 38.6 °F 37.4 °F 81% 30.39 in 10.0 mi North 6.9 mph - N/A   Clear
11:15 PM 42.8 °F 38.6 °F 37.4 °F 81% 30.40 in 10.0 mi NNE 6.9 mph - N/A   Clear
11:35 PM 42.8 °F 38.6 °F 37.4 °F 81% 30.40 in 10.0 mi NNE 6.9 mph - N/A   Clear